Location: Unspecified
(45.3712°N, 0.6436°E)
Time: 13:56:44
(UTC+02:00)

ISS - Pass Details

Date: 19 July 2018
Orbit: 402 x 408 km, 51.6° (Epoch: 21 July)

Event Time Altitude Azimuth Distance (km) Brightness Sun altitude
Exits shadow 01:30:37 20° 287° (WNW) 1,019 -1.6 -23.3°
Maximum altitude 01:32:26 36° 344° (NNW) 665 -2.2 -23.4°
Drops below altitude 10° 01:35:31 10° 53° (NE) 1,470 -0.7 -23.4°
Sets 01:37:43 0° 62° (ENE) 2,333 0.3 -23.5°
